Tracking 20093 objects as of 14-Dec-2019
HD Live streaming from Space Station
objects crossing your sky now

FENGYUN 1C DEB

Track FENGYUN 1C DEB now!
10-day predictions


NORAD ID: 33601
Int'l Code: 1999-025DCJ
Perigee: 779.6 km
Apogee: 1,032.2 km
Inclination: 98.3 °
Period: 103.0 minutes
Semi major axis: 7276 km
RCS: 0.0058 m2 (small)
Launch date: May 10, 1999
Source: People's Republic of China (PRC)
Launch site: Taiyaun Space Center, China (TSC)

Note: This is SATELLITE DEBRIS
aabbcc
Your satellite tracking list
Your tracking list is empty




NASA's NSSDC Master Catalog

Two Line Element Set (TLE):
1 33601U 99025DCJ 19347.30331677  .00000646  00000-0  42026-3 0  9995
2 33601  98.3277 301.4866 0173539 217.3368 141.5634 13.98566515599980
Source of the keplerian elements: AFSPC